Weather History for Milton, FL

Change the Weather History Date:

Wednesday, February 5, 2014

  Actual Average (KNSE) Record (KNSE)
Temperature  
Mean Temperature 54 °F -  
Max Temperature 70 °F 60 °F 78 °F (2008)
Min Temperature 39 °F 42 °F 19 °F (2009)
Degree Days  
Heating Degree Days 10    
Growing Degree Days 4 (Base 50)    
Moisture  
Dew Point 50 °F    
Average Humidity 78    
Maximum Humidity 97    
Minimum Humidity 46    
Precipitation  
Precipitation 0.03 in - - ()
Sea Level Pressure  
Sea Level Pressure 30.05 in    
Wind  
Wind Speed 13 mph (NNW)    
Max Wind Speed 21 mph    
Max Gust Speed 29 mph    
Visibility 8 miles    
Events Rain    
Averages and records for this station are not official NWS values.
T = Trace of Precipitation, MM = Missing Value Source: NWS Daily Summary

Daily Weather History Graph

Daily Weather History Graph

Search for Another Location

Airport:

Trip Planner

Search our weather history database for the weather conditions in past years. The results will help you decide how hot, cold, wet, or windy it might be!

Date:

Astronomy

Feb. 05, 2014 Rise Set
Actual Time 6:36 AM CST 5:27 PM CST
Civil Twilight 6:11 AM CST 5:52 PM CST
Nautical Twilight 5:43 AM CST 6:21 PM CST
Astronomical Twilight 5:14 AM CST 6:49 PM CST
Moon 10:20 AM CST (2/5) 11:51 PM CST (2/5)
Length of Visible Light 11h 41m
Length of Day
10h 50m
Waxing Crescent, 39% of the Moon is Illuminated
Feb 5
Waxing Crescent
Feb 6
First Quarter
Feb 14
Full
Feb 22
Last Quarter
Mar 1
New

Hourly Weather History & Observations

Time (CST) Temp. Windchill Dew Point Humidity Pressure Visibility Wind Dir Wind Speed Gust Speed Precip Events Conditions
12:07 AM 68.0 °F - 66.0 °F 93% 29.93 in 0.8 mi North - - N/A   Mist
12:33 AM 68.0 °F - 66.0 °F 93% 29.93 in 1.0 mi North - - 0.00 in Rain Light Rain
12:56 AM 68.0 °F - 66.0 °F 93% 29.89 in 1.0 mi North - - 0.00 in   Mist
1:27 AM 69.1 °F - 66.9 °F 93% 29.94 in 2.5 mi North - - N/A   Overcast
1:43 AM 68.0 °F - 66.0 °F 93% 29.93 in 1.5 mi North - - 0.00 in Rain Light Rain
1:56 AM 68.0 °F - 66.0 °F 93% 29.89 in 1.5 mi North - - 0.00 in   Overcast
2:12 AM 68.0 °F - 66.0 °F 93% 29.93 in 3.0 mi North - - 0.01 in Rain Light Rain
2:56 AM 70.0 °F - 66.9 °F 90% 29.91 in 10.0 mi North - - 0.03 in   Overcast
3:03 AM 70.0 °F - 68.0 °F 93% 29.95 in 10.0 mi North - - N/A   Overcast
3:27 AM 69.1 °F - 66.9 °F 93% 29.96 in 10.0 mi North - - N/A   Overcast
3:48 AM 68.0 °F - 66.0 °F 93% 29.96 in 10.0 mi North - - 0.00 in   Overcast
3:56 AM 66.9 °F - 66.0 °F 97% 29.92 in 10.0 mi North - - 0.00 in   Overcast
4:15 AM 66.9 °F - 64.9 °F 93% 29.96 in 10.0 mi North - - N/A   Overcast
4:46 AM 64.9 °F - 63.0 °F 93% 29.98 in 10.0 mi North - - N/A   Overcast
4:56 AM 64.9 °F - 62.1 °F 90% 29.94 in 10.0 mi North - - N/A   Overcast
5:56 AM 61.0 °F - 57.9 °F 90% 29.96 in 7.0 mi NW 11.5 mph - 0.00 in   Overcast
6:22 AM 59.0 °F - 55.9 °F 90% 30.02 in 10.0 mi NW 10.4 mph - N/A   Overcast
6:56 AM 57.9 °F - 54.0 °F 87% 30.01 in 10.0 mi NW 10.4 mph - N/A   Mostly Cloudy
7:56 AM 55.0 °F - 51.1 °F 86% 30.02 in 10.0 mi NW 10.4 mph - N/A   Mostly Cloudy
8:56 AM 54.0 °F - 48.9 °F 83% 30.06 in 10.0 mi North 11.5 mph - N/A   Mostly Cloudy
9:56 AM 51.1 °F - 46.0 °F 83% 30.10 in 10.0 mi NNW 10.4 mph 23.0 mph N/A   Mostly Cloudy
10:56 AM 54.0 °F - 44.1 °F 69% 30.10 in 10.0 mi North 15.0 mph 23.0 mph N/A   Mostly Cloudy
11:56 AM 57.0 °F - 43.0 °F 59% 30.08 in 10.0 mi North 12.7 mph 21.9 mph N/A   Mostly Cloudy
12:56 PM 57.9 °F - 41.0 °F 53% 30.07 in 10.0 mi NNW 10.4 mph 23.0 mph N/A   Mostly Cloudy
1:56 PM 57.9 °F - 39.0 °F 49% 30.08 in 10.0 mi NNW 13.8 mph 21.9 mph N/A   Scattered Clouds
2:56 PM 57.9 °F - 37.0 °F 46% 30.09 in 10.0 mi North 16.1 mph 23.0 mph N/A   Scattered Clouds
3:56 PM 55.0 °F - 37.0 °F 51% 30.10 in 10.0 mi North 17.3 mph - N/A   Scattered Clouds
4:56 PM 52.0 °F - 36.0 °F 54% 30.12 in 10.0 mi North 16.1 mph - N/A   Scattered Clouds
5:56 PM 45.0 °F 38.2 °F 34.0 °F 65% 30.17 in 10.0 mi North 15.0 mph 26.5 mph N/A   Scattered Clouds
6:56 PM 44.1 °F 37.4 °F 33.1 °F 65% 30.18 in 10.0 mi North 13.8 mph - N/A   Scattered Clouds
7:10 PM 43.0 °F 34.2 °F 32.0 °F 65% 30.23 in 10.0 mi North 20.7 mph - N/A   Mostly Cloudy
7:56 PM 42.1 °F 33.9 °F 30.9 °F 65% 30.20 in 10.0 mi North 17.3 mph 24.2 mph N/A   Mostly Cloudy
8:06 PM - - - N/A% - - North - - N/A   Unknown
8:41 PM 42.1 °F 33.6 °F 30.9 °F 65% 30.23 in 10.0 mi North 18.4 mph 28.8 mph N/A   Scattered Clouds
8:56 PM 42.1 °F 33.3 °F 30.9 °F 65% 30.20 in 10.0 mi North 19.6 mph 27.6 mph N/A   Scattered Clouds
9:56 PM 41.0 °F 32.8 °F 30.0 °F 65% 30.22 in 10.0 mi North 16.1 mph 23.0 mph N/A   Scattered Clouds
10:56 PM 39.9 °F 31.4 °F 28.9 °F 65% 30.23 in 10.0 mi North 16.1 mph - N/A   Scattered Clouds
11:56 PM 39.0 °F 32.3 °F 28.9 °F 67% 30.22 in 10.0 mi North 10.4 mph - N/A   Clear